Location: Brede
(50.9167°N, 0.6000°E)
Time: 20:41:39
(UTC+00:00)

Altair - Pass Details

Date: 06 August 2021
Orbit: 1501 x 1682 km, 47.2° (Epoch: 22 September)

Event Time Altitude Azimuth Distance (km) Brightness Sun altitude
Exits shadow 23:58:56 34° 169° (SSE) 2,343 7.9 -22.4°
Maximum altitude 00:00:57 38° 144° (SE) 2,218 7.9 -22.4°
Drops below altitude 10° 00:09:10 10° 81° (E) 3,682 9.6 -22.4°
Sets 00:12:26 0° 74° (ENE) 4,653 10.3 -22.4°
